Location: Montclair
(37.8322°N, 122.2092°W)
Time: 11:30:24
(UTC+00:00)

Lacrosse 5 rocket - Pass Details

Date: 08 September 2024
Orbit: 430 x 563 km, 57.0° (Epoch: 12 October)

Event Time Altitude Azimuth Distance (km) Brightness Sun altitude
Exits shadow 12:20:28 - 173° (S) 2,456 4.5 -17.0°
Rises 12:20:32 0° 172° (S) 2,439 4.5 -17.0°
Reaches altitude 10° 12:24:32 10° 127° (SE) 1,546 4.0 -16.3°
Maximum altitude 12:24:56 10° 120° (ESE) 1,534 4.1 -16.2°
Drops below altitude 10° 12:25:20 10° 113° (ESE) 1,542 4.3 -16.1°
Sets 12:29:17 0° 67° (ENE) 2,401 6.5 -15.4°
